Regional Weather Roundup
Issued by NWS Green Bay, WI

Home | Current Version | Previous Version | Text Only | Print | Product List | Glossary On
Versions: 1 2 3 4 5 6 7 8 9 10 11 12 13 14 15 16 17 18 19 20 21 22 23 24 25 26 27 28 29 30 31 32 33 34 35 36 37 38 39 40 41 42 43 44 45 46 47 48 49 50
000
ASUS43 KGRB 301411
RWRGRB

NORTH-CENTRAL AND NORTHEAST WISCONSIN REGIONAL WEATHER ROUNDUP
NATIONAL WEATHER SERVICE GREEN BAY WI
900 AM CDT SAT APR 30 2016

WIZ005-009-010>012-018-019-301500-
NORTH CENTRAL WISCONSIN

CITY           SKY/WX    TMP DP  RH WIND       PRES   REMARKS
IRONWOOD         N/A     45  32  61 E14       30.20S
MANITOWISH WTR CLOUDY    45  32  60 NE12G18   30.19S
ARBOR VITAE    CLOUDY    46  31  57 E7        30.19S
EAGLE RIVER    CLOUDY    46  29  52 E8        30.18F
LAND O LAKES   CLOUDY    46  31  54 NE8       30.20F
RHINELANDER    MOSUNNY   45  30  55 NE8       30.18F
PHILLIPS       CLOUDY    43  32  63 E8        30.17S
ANTIGO         CLOUDY    47  32  56 E12       30.15S
TOMAHAWK       CLOUDY    44  31  59 NE6       30.17S
MERRILL        PTSUNNY   46  33  62 NE8       30.15S
$$

WIZ013-073-301500-
NORTHEAST WISCONSIN

CITY           SKY/WX    TMP DP  RH WIND       PRES   REMARKS
IRON MOUNTAIN  CLOUDY    49  31  49 NE8       30.19S
MARINETTE      MOSUNNY   43  34  70 E17       30.18F
OCONTO         PTSUNNY   47  36  66 NE7       30.17S
$$

WIZ017-030-035>037-045-301500-
CENTRAL WISCONSIN

CITY           SKY/WX    TMP DP  RH WIND       PRES   REMARKS
MEDFORD        CLOUDY    44  33  66 E9        30.13S
WAUSAU         PTSUNNY   48  32  53 E9G20     30.12S
MOSINEE        SUNNY     45  32  61 E10       30.14S
MARSHFIELD     CLOUDY    45  33  63 E12       30.10S
WISC RAPIDS    CLOUDY    45  31  58 E10       30.12S
STEVENS POINT  PTSUNNY   42  31  64 E12       30.13S
WAUPACA        CLOUDY    46  35  67 NE10      30.13S
SHAWANO        PTSUNNY   47  35  62 NE8       30.16S
CLINTONVILLE   PTSUNNY   45  32  61 NE10      30.14S
WAUTOMA        CLOUDY    44  35  70 NE12      30.10F
$$

WIZ038-039-048-051-301500-
FOX VALLEY

CITY           SKY/WX    TMP DP  RH WIND       PRES   REMARKS
NWS GREEN BAY  PTSUNNY   46  38  73 NE15      30.15S
APPLETON       PTSUNNY   45  36  70 E9G16     30.11F
OSHKOSH        CLOUDY    46  37  71 NE9       30.11F
FOND DU LAC    CLOUDY    47  37  68 E9        30.10F
$$

WIZ022-050-052-301500-
EAST CENTRAL WISCONSIN

CITY           SKY/WX    TMP DP  RH WIND       PRES   REMARKS
EPHRAIM        FAIR      47  32  56 E9        30.17F
STURGEON BAY   CLOUDY    46  34  61 E9        30.19F
MANITOWOC      CLOUDY    46  38  73 E7        30.15F
SHEBOYGAN      PTSUNNY   46  38  73 E10       30.12F
$$

LMZ563-521-522-541>543-301500-
LAKESHORE

STATION/POSITION TIME  TEMP    WIND        PRES    VSBY  WAVE
                       AIR SEA DIR/SP/G                  HT/PER
                 (UTC) (F)     (DEG/KT/KT) (MB)    (MI)  (FT/S)
SHEBOYGAN LKSHOR 1400   41      10/ 10/ 11 1021.0F
KEWAUNEE LKSHORE 1300   42      30/  8/ 10 1020.7R
ALGOMA MARINA    1315           60/ 14/ 16   N/A
NORTHPORT PIER   1300   42     340/  6/  8 1022.4R
N MID LAKE BUOY  1250   39 38   50/ 10/ 12 1022.6          1/ 3
CHAMBERS ISLAND  1300   40      30/ 10/ 14 1022.7R
MENOMINEE LKSHOR 1300   41      30/ 12/ 14 1021.4R
$$




USA.gov is the U.S. government's official web portal to all federal, state and local government web resources and services.